Change the Weather History Date:

Saturday, February 9, 2013

  Actual Average Record
Temperature  
Mean Temperature 35 °F -  
Max Temperature 43 °F 41 °F 68 °F (1949)
Min Temperature 27 °F 23 °F -2 °F (1967)
Degree Days  
Heating Degree Days 30    
Moisture  
Dew Point 20 °F    
Average Humidity 53    
Maximum Humidity 81    
Minimum Humidity 36    
Precipitation  
Precipitation 0.00 in - - ()
Sea Level Pressure  
Sea Level Pressure 30.20 in    
Wind  
Wind Speed 12 mph (NW)    
Max Wind Speed 18 mph    
Max Gust Speed 36 mph    
Visibility 10 miles    
Events      
Averages and records for this station are not official NWS values.
T = Trace of Precipitation, MM = Missing Value Source: NWS Daily Summary

Daily Weather History Graph

Daily Weather History Graph

Search for Another Location

Airport or City:

Trip Planner

Search our weather history database for the weather conditions in past years. The results will help you decide how hot, cold, wet, or windy it might be!

Date:

Astronomy

Feb. 09, 2013 Rise Set
Actual Time 7:05 AM EST 5:38 PM EST
Civil Twilight 6:38 AM EST 6:06 PM EST
Nautical Twilight 6:06 AM EST 6:37 PM EST
Astronomical Twilight 5:35 AM EST 7:08 PM EST
Moon 6:16 AM EST (2/9) 5:18 PM EST (2/9)
Length of Visible Light 11h 28m
Length of Day
10h 32m
Waning Crescent, 0% of the Moon is Illuminated
Feb 9
Waning Crescent
Feb 10
New
Feb 17
First Quarter
Feb 25
Full
Mar 4
Last Quarter

Hourly Weather History & Observations

Time (EST) Temp. Windchill Dew Point Humidity Pressure Visibility Wind Dir Wind Speed Gust Speed Precip Events Conditions
12:15 AM 37.8 °F 29.0 °F 23.9 °F 57% 29.93 in 10.0 mi NW 15.0 mph 28.8 mph N/A   Overcast
12:35 AM 37.4 °F 28.5 °F 23.9 °F 58% 29.93 in 10.0 mi NW 15.0 mph 29.9 mph N/A   Overcast
12:55 AM 37.4 °F 28.2 °F 23.7 °F 58% 29.95 in 10.0 mi NW 16.1 mph 35.7 mph N/A   Overcast
1:15 AM 36.7 °F 27.2 °F 23.4 °F 59% 29.95 in 10.0 mi NW 16.1 mph 23.0 mph N/A   Overcast
1:35 AM 36.5 °F 27.8 °F 23.5 °F 59% 29.95 in 10.0 mi NW 13.8 mph 24.2 mph N/A   Overcast
1:55 AM 36.1 °F 25.9 °F 23.7 °F 61% 29.96 in 10.0 mi NW 18.4 mph 26.5 mph N/A   Overcast
2:15 AM 35.6 °F 26.6 °F 23.7 °F 62% 29.98 in 10.0 mi NW 13.8 mph 23.0 mph N/A   Overcast
2:35 AM 35.1 °F 25.5 °F 23.4 °F 62% 30.00 in 10.0 mi NW 15.0 mph 27.6 mph N/A   Overcast
2:55 AM 34.7 °F 24.3 °F 22.6 °F 61% 30.01 in 10.0 mi NW 17.3 mph 32.2 mph N/A   Overcast
3:15 AM 34.2 °F 23.6 °F 22.8 °F 63% 30.01 in 10.0 mi NW 17.3 mph 24.2 mph N/A   Mostly Cloudy
3:35 AM 34.0 °F 25.5 °F 22.1 °F 62% 30.02 in 10.0 mi NW 11.5 mph 23.0 mph N/A   Scattered Clouds
3:55 AM 33.8 °F 24.3 °F 21.9 °F 62% 30.03 in 10.0 mi NW 13.8 mph 25.3 mph N/A   Scattered Clouds
4:15 AM 33.8 °F 24.8 °F 21.2 °F 60% 30.04 in 10.0 mi NNW 12.7 mph 23.0 mph N/A   Clear
4:35 AM 33.3 °F 23.7 °F 21.2 °F 61% 30.04 in 10.0 mi NW 13.8 mph 23.0 mph N/A   Clear
4:55 AM 33.1 °F 22.6 °F 21.0 °F 61% 30.06 in 10.0 mi NW 16.1 mph 25.3 mph N/A   Clear
5:15 AM 33.1 °F 23.4 °F 20.7 °F 60% 30.07 in 10.0 mi NW 13.8 mph 25.3 mph N/A   Scattered Clouds
5:35 AM 32.5 °F 22.7 °F 20.7 °F 62% 30.07 in 10.0 mi NW 13.8 mph 25.3 mph N/A   Scattered Clouds
5:55 AM 32.5 °F 22.3 °F 20.5 °F 61% 30.09 in 10.0 mi NNW 15.0 mph 25.3 mph N/A   Clear
6:15 AM 32.2 °F 23.8 °F 20.3 °F 62% 30.10 in 10.0 mi NW 10.4 mph 26.5 mph N/A   Scattered Clouds
6:35 AM 32.0 °F 23.0 °F 20.1 °F 62% 30.12 in 10.0 mi NNW 11.5 mph 20.7 mph N/A   Clear
6:55 AM 32.0 °F 22.1 °F 19.9 °F 61% 30.12 in 10.0 mi NNW 13.8 mph 20.7 mph N/A   Clear
7:15 AM 32.0 °F 23.0 °F 20.3 °F 62% 30.13 in 10.0 mi NW 11.5 mph 23.0 mph N/A   Clear
7:35 AM 32.0 °F 21.6 °F 20.1 °F 62% 30.15 in 10.0 mi NW 15.0 mph 23.0 mph N/A   Clear
7:55 AM 32.2 °F 25.0 °F 19.9 °F 61% 30.15 in 10.0 mi NNW 8.1 mph 17.3 mph N/A   Clear
8:15 AM 32.5 °F 23.7 °F 19.2 °F 58% 30.17 in 10.0 mi NNW 11.5 mph 26.5 mph N/A   Clear
8:35 AM 32.9 °F 24.7 °F 19.2 °F 57% 30.18 in 10.0 mi NW 10.4 mph 25.3 mph N/A   Clear
8:55 AM 33.3 °F 23.7 °F 18.9 °F 56% 30.20 in 10.0 mi NW 13.8 mph 29.9 mph N/A   Scattered Clouds
9:15 AM 33.3 °F 23.2 °F 19.2 °F 56% 30.21 in 10.0 mi NNW 15.0 mph 23.0 mph N/A   Mostly Cloudy
9:35 AM 34.3 °F 25.5 °F 19.4 °F 54% 30.21 in 10.0 mi WNW 12.7 mph 18.4 mph N/A   Mostly Cloudy
9:55 AM 34.2 °F 24.0 °F 18.9 °F 54% 30.21 in 10.0 mi NW 16.1 mph 27.6 mph N/A   Scattered Clouds
10:15 AM 35.4 °F 26.8 °F 19.4 °F 52% 30.21 in 10.0 mi NW 12.7 mph 24.2 mph N/A   Clear
10:35 AM 36.5 °F 27.0 °F 19.4 °F 50% 30.22 in 10.0 mi NW 16.1 mph 25.3 mph N/A   Clear
10:55 AM 36.0 °F 27.1 °F 19.2 °F 51% 30.23 in 10.0 mi NW 13.8 mph 23.0 mph N/A   Clear
11:15 AM 36.5 °F 27.8 °F 18.9 °F 49% 30.24 in 10.0 mi NNW 13.8 mph 23.0 mph N/A   Clear
11:35 AM 37.0 °F 29.8 °F 19.2 °F 49% 30.25 in 10.0 mi WNW 10.4 mph 21.9 mph N/A   Clear
11:55 AM 37.6 °F 28.8 °F 19.2 °F 48% 30.24 in 10.0 mi NNW 15.0 mph 23.0 mph N/A   Clear
12:15 PM 38.5 °F 30.7 °F 19.2 °F 46% 30.24 in 10.0 mi NNW 12.7 mph 20.7 mph N/A   Clear
12:35 PM 39.2 °F 31.6 °F 19.0 °F 44% 30.24 in 10.0 mi NW 12.7 mph 20.7 mph N/A   Clear
12:55 PM 39.6 °F 31.3 °F 19.6 °F 45% 30.23 in 10.0 mi NW 15.0 mph 24.2 mph N/A   Clear
1:15 PM 39.6 °F 32.1 °F 18.5 °F 43% 30.24 in 10.0 mi WNW 12.7 mph 23.0 mph N/A   Clear
1:35 PM 40.5 °F 33.2 °F 18.7 °F 42% 30.23 in 10.0 mi WNW 12.7 mph 20.7 mph N/A   Clear
1:55 PM 41.9 °F 35.0 °F 18.9 °F 40% 30.23 in 10.0 mi WNW 12.7 mph 18.4 mph N/A   Clear
2:15 PM 41.5 °F 33.8 °F 18.7 °F 40% 30.24 in 10.0 mi WNW 15.0 mph 21.9 mph N/A   Clear
2:35 PM 42.3 °F 36.3 °F 18.9 °F 39% 30.25 in 10.0 mi NW 10.4 mph 17.3 mph N/A   Clear
2:55 PM 42.6 °F 36.8 °F 18.7 °F 38% 30.25 in 10.0 mi NNW 10.4 mph 16.1 mph N/A   Clear
3:15 PM 43.0 °F 37.2 °F 18.3 °F 37% 30.27 in 10.0 mi NW 10.4 mph 20.7 mph N/A   Clear
3:35 PM 42.4 °F 36.1 °F 18.0 °F 37% 30.27 in 10.0 mi NNW 11.5 mph 19.6 mph N/A   Clear
3:55 PM 42.4 °F 35.3 °F 17.2 °F 36% 30.27 in 10.0 mi NW 13.8 mph 19.6 mph N/A   Clear
4:15 PM 42.1 °F 35.7 °F 16.7 °F 36% 30.28 in 10.0 mi NNW 11.5 mph 19.6 mph N/A   Clear
4:35 PM 41.9 °F 36.9 °F 17.2 °F 37% 30.28 in 10.0 mi NNW 8.1 mph - N/A   Clear
4:55 PM 41.5 °F 35.0 °F 16.5 °F 36% 30.28 in 10.0 mi NW 11.5 mph - N/A   Clear
5:15 PM 40.5 °F 34.1 °F 16.2 °F 37% 30.30 in 10.0 mi NW 10.4 mph 16.1 mph N/A   Clear
5:35 PM 39.7 °F 34.9 °F 16.5 °F 39% 30.30 in 10.0 mi NNW 6.9 mph - N/A   Clear
5:55 PM 38.5 °F 34.1 °F 16.2 °F 40% 30.31 in 10.0 mi NNW 5.8 mph - N/A   Clear
6:15 PM 38.5 °F 35.0 °F 15.8 °F 40% - 10.0 mi NW 4.6 mph - N/A   Clear
6:35 PM 38.5 °F 35.0 °F 15.4 °F 39% 30.33 in 10.0 mi NW 4.6 mph - N/A   Clear
6:55 PM 37.6 °F 35.1 °F 16.0 °F 41% 30.34 in 10.0 mi NNW 3.5 mph - N/A   Clear
7:15 PM 37.6 °F 34.0 °F 17.4 °F 44% 30.35 in 10.0 mi NW 4.6 mph - N/A   Clear
7:35 PM 37.4 °F 32.8 °F 16.9 °F 43% 30.35 in 10.0 mi NNW 5.8 mph - N/A   Clear
7:55 PM 36.7 °F 32.0 °F 16.5 °F 44% 30.36 in 10.0 mi NW 5.8 mph - N/A   Clear
8:15 PM 36.3 °F 33.7 °F 16.5 °F 45% 30.35 in 10.0 mi NNW 3.5 mph - N/A   Clear
8:35 PM 35.4 °F 32.6 °F 16.7 °F 47% 30.35 in 10.0 mi North 3.5 mph - N/A   Clear
8:55 PM 33.3 °F 30.2 °F 18.7 °F 55% 30.36 in 10.0 mi NNW 3.5 mph - N/A   Clear
9:15 PM 35.6 °F - 16.5 °F 46% 30.37 in 10.0 mi Calm Calm - N/A   Clear
9:35 PM 34.0 °F - 17.6 °F 51% 30.37 in 10.0 mi Calm Calm - N/A   Clear
9:50 PM 32.0 °F - 18.5 °F 58% 30.38 in 10.0 mi Calm Calm - N/A   Clear
10:15 PM 29.5 °F - 21.6 °F 72% 30.38 in 10.0 mi Calm Calm - N/A   Clear
10:35 PM 31.6 °F - 17.8 °F 57% 30.38 in 10.0 mi Calm Calm - N/A   Clear
10:55 PM 28.6 °F - 21.4 °F 74% 30.39 in 10.0 mi Calm Calm - N/A   Clear
11:15 PM 27.7 °F - 22.5 °F 81% 30.39 in 10.0 mi Calm Calm - N/A   Clear
11:35 PM 28.0 °F - 21.2 °F 76% 30.40 in 10.0 mi Calm Calm - N/A   Clear
11:50 PM 27.3 °F - 21.0 °F 77% 30.40 in 10.0 mi Calm Calm - N/A   Clear